Location: Black Creek
(40.9000°S, 175.5500°E)
Time: 08:34:51
(UTC+00:00)

Explorer 7 - Pass Details

Date: 13 November 2024
Orbit: 455 x 598 km, 50.3° (Epoch: 07 December)

Event Time Altitude Azimuth Distance (km) Brightness Sun altitude
Rises 08:53:23 0° 235° (SW) 2,595 12.0 -16.5°
Reaches altitude 10° 08:55:40 10° 230° (SW) 1,686 10.6 -16.8°
Maximum altitude 08:59:23 52° 152° (SSE) 598 7.0 -17.3°
Enters shadow 09:00:42 33° 94° (E) 812 7.3 -17.5°
